[[{"header":{"parameterUnit":"m.s-1","parameterCategory":1,"la1":30.2991,"la2":30.254,"lo1":-89.0895,"lo2":-89.0444,"dy":0.0017,"dx":0.0017,"nx":28,"ny":28,"refTime":"2024-04-21T09:00:00:Z","depth":0,"parameterNumber":2,"parameterNumberName":"U-component_of_WINDS"},"data":[0,0,0,0,0,0,0,0,0,0,0,0,0,0,0,0,0,0,0,0,0,0,0,0,0,0,0,0,0,0,0,0,0,0,0,0,0,0,0,0,0,0,0,0,0,0,0,0,0,0,0,0,0,0,0,0,0,0,-3.3378,-3.3379,0,-3.3432,-3.3433,-3.3433,-3.336,-3.3358,-3.3355,-3.3353,-3.3406,-3.3409,-3.3413,0,0,0,0,0,0,0,0,0,0,0,0,0,-3.3209,-3.3212,-3.3378,-3.3379,-3.3379,-3.3432,-3.3433,-3.3433,-3.3361,-3.3358,-3.3355,-3.3352,-3.3404,-3.3409,-3.3414,0,0,0,0,0,0,0,0,0,0,0,0,0,-3.3274,-3.3213,-3.3378,-3.335,-3.3348,-3.3432,-3.3433,-3.3434,-3.3362,-3.3358,-3.3354,-3.335,-3.3403,-3.3408,-3.3414,-3.3528,0,0,-3.3432,-3.3434,0,0,0,0,0,0,0,0,-3.3271,-3.3281,-3.3353,-3.3352,-3.335,-3.3386,-3.3392,-3.3465,-3.3363,-3.3356,-3.3353,-3.3348,-3.3402,-3.3408,-3.3426,-3.353,-3.3533,-3.3432,-3.3436,-3.3438,-3.344,0,0,0,0,0,0,0,-3.3266,-3.3278,-3.3399,-3.3354,-3.3352,-3.3333,-3.3338,-3.3406,-3.34,-3.3356,-3.3351,-3.3359,-3.34,-3.3421,-3.3427,-3.3533,-3.3432,-3.3437,-3.3441,-3.3443,-3.3732,-3.3736,0,0,0,0,0,0,-3.3266,-3.3275,-3.3397,-3.3401,-3.33,-3.3339,-3.3345,-3.3378,-3.3399,-3.3399,-3.3362,-3.3355,-3.3413,-3.342,-3.3428,-3.3561,-3.3438,-3.3444,-3.3447,-3.3727,-3.3732,-3.3737,0,0,0,0,0,0,-3.3262,-3.3277,-3.3395,-3.3336,-3.335,-3.3346,-3.3384,-3.3381,-3.3401,-3.3404,-3.3402,-3.3384,-3.341,-3.342,-3.3503,-3.3562,-3.3446,-3.3451,-3.3722,-3.3729,-3.3735,-3.3829,0,0,0,0,0,0,-3.3258,-3.3276,-3.332,-3.3338,-3.3353,-3.3471,-3.3388,-3.3385,-3.3412,-3.3403,-3.3424,-3.3424,-3.3408,-3.3495,-3.3509,-3.3568,-3.3456,-3.3717,-3.3725,-3.3733,-3.382,-3.3837,-3.3852,0,0,0,0,0,-3.3252,-3.3344,-3.3323,-3.3338,-3.3408,-3.3474,-3.3483,-3.3463,-3.3417,-3.346,-3.3462,-3.3423,-3.3554,-3.3504,-3.3519,-3.3581,-3.3713,-3.3723,-3.3732,-3.3813,-3.3834,-3.3852,0,0,0,0,0,0,-3.3333,-3.3346,-3.3322,-3.3424,-3.3449,-3.3462,-3.3516,-3.3486,-3.3524,-3.3514,-3.3488,-3.3493,-3.3582,-3.359,-3.3534,-3.3691,-3.3626,-3.3639,-3.3682,-3.3702,-3.3718,-3.3712,-3.3461,0,0,0,0,0,-3.3363,-3.3416,-3.3424,-3.3513,-3.3527,-3.352,-3.3547,-3.353,-3.3554,-3.3564,-3.3571,-3.3596,-3.3642,-3.3673,-3.3716,-3.3822,-3.3824,-3.3871,-3.3887,-3.39,-3.3911,-3.3966,-3.3986,-3.3768,-3.3768,-3.3768,0,0,-3.3424,-3.3438,-3.3473,-3.353,-3.3547,-3.3601,-3.3529,-3.3589,-3.3629,-3.3573,-3.3651,-3.3658,-3.3683,-3.3778,-3.382,-3.3787,-3.3972,-3.3912,-3.3923,-3.3926,-3.3978,-3.3998,-3.4016,-3.3775,-3.3773,-3.3772,0,0,-3.3564,-3.3581,-3.3656,-3.3674,-3.3701,-3.3696,-3.3714,-3.3732,-3.3734,-3.3813,-3.3772,-3.3818,-3.3899,-3.3918,-3.3938,-3.4086,-3.405,-3.41,-3.4182,-3.4236,-3.4253,-3.4268,-3.4318,-3.4337,-3.4112,-3.4112,-3.4112,0,-3.3637,-3.3718,-3.3697,-3.3761,-3.3786,-3.3739,-3.3814,-3.3833,-3.3872,-3.389,-3.3853,-3.3953,-3.3967,-3.4064,-3.41,-3.4119,-3.4137,-3.4097,-3.4253,-3.4268,-3.4281,-3.4329,-3.4348,-3.4118,-3.4117,-3.4116,-3.4116,0,-3.3805,-3.3862,-3.3919,-3.3958,-3.399,-3.4059,-3.4048,-3.4082,-3.4063,-3.4061,-3.4141,-3.4156,-3.42,-3.4223,-3.4205,-3.4318,-3.4296,-3.4257,-3.419,-3.4308,-3.4352,-3.437,-3.4126,-3.4124,-3.4122,-3.4121,0,0,-3.3995,-3.4023,-3.4044,-3.4061,-3.4088,-3.413,-3.4197,-3.4241,-3.427,-3.4299,-3.4352,-3.4422,-3.4386,-3.4409,-3.4392,-3.444,-3.4553,-3.4394,-3.4394,-3.4421,-3.4676,-3.4703,-3.4725,-3.4531,-3.4534,-3.4537,-3.4673,0,-3.4133,-3.4248,-3.4231,-3.4341,-3.4392,-3.4349,-3.4406,-3.4428,-3.4429,-3.4471,-3.4471,-3.452,-3.447,-3.4483,-3.4528,-3.4529,-3.4603,-3.452,-3.4578,-3.4581,-3.457,-3.4748,-3.4777,-3.4904,-3.469,-3.4693,-3.4695,0,-3.4308,-3.4344,-3.4459,-3.4477,-3.4498,-3.455,-3.4588,-3.463,-3.4654,-3.465,-3.4677,-3.4651,-3.4716,-3.4651,-3.4739,-3.4682,-3.4706,-3.471,-3.4714,-3.4716,-3.4643,-3.4752,-3.4945,-3.4963,-3.4722,-3.472,-3.4718,0,-3.4432,-3.451,-3.4588,-3.4604,-3.4627,-3.4664,-3.4676,-3.4696,-3.4723,-3.4756,-3.4773,-3.4814,-3.4836,-3.4868,-3.4854,-3.4808,-3.4943,-3.4877,-3.4941,-3.4941,-3.4969,-3.4967,-3.5165,-3.4989,-3.4989,-3.4988,-3.4988,0,-3.4586,-3.4657,-3.4644,-3.4692,-3.477,-3.4751,-3.4829,-3.4834,-3.4853,-3.49,-3.4866,-3.4911,-3.4891,-3.4934,-3.4924,-3.4997,-3.5008,-3.5005,-3.5001,-3.5007,-3.5007,-3.502,-3.5009,-3.4993,-3.4992,-3.4991,-3.499,0,-3.4737,-3.4731,-3.4813,-3.4828,-3.4834,-3.4891,-3.4903,-3.4948,-3.4946,-3.5006,-3.5019,-3.5016,-3.5065,-3.5055,-3.5109,-3.5102,-3.5193,-3.5179,-3.5185,-3.5181,-3.5244,-3.5237,-3.5454,-3.5481,-3.5291,-3.5293,-3.5294,0,-3.4834,-3.4888,-3.4909,-3.4939,-3.4953,-3.5001,-3.5029,-3.5012,-3.5042,-3.5072,-3.5113,-3.5159,-3.5195,-3.5276,-3.5277,-3.5318,-3.5303,-3.5377,-3.5309,-3.5313,-3.5301,-3.5297,-3.5301,-3.5389,-3.5392,-3.5393,-3.5395,0,-3.5006,-3.5,-3.5041,-3.5082,-3.5116,-3.5147,-3.5175,-3.5201,-3.5186,-3.5221,-3.5271,-3.53,-3.5355,-3.5401,-3.5439,-3.5449,-3.5419,-3.5417,-3.5433,-3.5438,-3.5438,-3.5436,-3.5219,-3.5411,-3.5409,-3.5408,-3.5407,-3.5407,-3.513,-3.5176,-3.5198,-3.5245,-3.5264,-3.529,-3.5332,-3.5336,-3.5378,-3.5422,-3.5409,-3.5466,-3.5487,-3.5535,-3.555,-3.5593,-3.5565,-3.559,-3.5595,-3.5601,-3.5607,-3.5434,-3.5601,-3.56,-3.56,-3.5599,-3.5599,0,-3.5298,-3.531,-3.5354,-3.5394,-3.5431,-3.5401,-3.543,-3.5462,-3.5513,-3.5536,-3.5572,-3.5629,-3.5673,-3.5679,-3.572,-3.5754,-3.5741,-3.5765,-3.576,-3.5763,-3.5631,-3.5612,-3.5774,-3.5774,-3.5774,-3.5774,-3.5774,-3.5774,-3.539,-3.5464,-3.5461,-3.5544,-3.5555,-3.5611,-3.563,-3.5653,-3.5671,-3.5737,-3.5773,-3.5777,-3.5793,-3.5835,-3.5874,-3.5874,-3.589,-3.5919,-3.5914,-3.579,-3.5772,-3.5756,-3.5737,-3.5923,-3.5923,-3.6042,-3.6043,-3.6043]},{"header":{"parameterUnit":"m.s-1","parameterCategory":1,"la1":30.2991,"la2":30.254,"lo1":-89.0895,"lo2":-89.0444,"dy":0.0017,"dx":0.0017,"nx":28,"ny":28,"refTime":"2024-04-21T09:00:00:Z","depth":0,"parameterNumber":3,"parameterNumberName":"V-component_of_WINDS"},"data":[0,0,0,0,0,0,0,0,0,0,0,0,0,0,0,0,0,0,0,0,0,0,0,0,0,0,0,0,0,0,0,0,0,0,0,0,0,0,0,0,0,0,0,0,0,0,0,0,0,0,0,0,0,0,0,0,0,0,-0.4117,-0.4117,0,-0.4153,-0.4153,-0.4153,-0.4226,-0.4228,-0.4229,-0.423,-0.4266,-0.4265,-0.4265,0,0,0,0,0,0,0,0,0,0,0,0,0,-0.4109,-0.4109,-0.4117,-0.4117,-0.4118,-0.4153,-0.4153,-0.4154,-0.4226,-0.4228,-0.4229,-0.4231,-0.4266,-0.4265,-0.4265,0,0,0,0,0,0,0,0,0,0,0,0,0,-0.4125,-0.4109,-0.4117,-0.4158,-0.4162,-0.4152,-0.4153,-0.4154,-0.4225,-0.4228,-0.423,-0.4232,-0.4266,-0.4265,-0.4265,-0.4217,0,0,-0.4263,-0.4263,0,0,0,0,0,0,0,0,-0.4124,-0.4126,-0.4151,-0.4155,-0.416,-0.4187,-0.4163,-0.4175,-0.4225,-0.4201,-0.423,-0.4233,-0.4238,-0.424,-0.4241,-0.4219,-0.4221,-0.4263,-0.4262,-0.4262,-0.4262,0,0,0,0,0,0,0,-0.4123,-0.4124,-0.4131,-0.4152,-0.4157,-0.4174,-0.4179,-0.4166,-0.4207,-0.4204,-0.4209,-0.4212,-0.424,-0.4242,-0.4243,-0.4221,-0.4263,-0.4262,-0.4262,-0.4262,-0.416,-0.4158,0,0,0,0,0,0,-0.4116,-0.4123,-0.413,-0.4132,-0.4147,-0.4172,-0.4178,-0.4176,-0.4207,-0.4214,-0.421,-0.4216,-0.4242,-0.4243,-0.4244,-0.419,-0.4262,-0.4262,-0.4261,-0.4163,-0.416,-0.4157,0,0,0,0,0,0,-0.4116,-0.4116,-0.4128,-0.4129,-0.4132,-0.417,-0.4168,-0.4176,-0.4177,-0.4212,-0.422,-0.4204,-0.4244,-0.4245,-0.4223,-0.4192,-0.4261,-0.4261,-0.4165,-0.4162,-0.4158,-0.4082,0,0,0,0,0,0,-0.4115,-0.4116,-0.4098,-0.4128,-0.4132,-0.4107,-0.4166,-0.4175,-0.4176,-0.4183,-0.4209,-0.4215,-0.4245,-0.4224,-0.4223,-0.4193,-0.426,-0.4168,-0.4164,-0.416,-0.4087,-0.4076,-0.4066,0,0,0,0,0,-0.4115,-0.4075,-0.4097,-0.4098,-0.4111,-0.4105,-0.4107,-0.4143,-0.4173,-0.4156,-0.4178,-0.4214,-0.4196,-0.4221,-0.422,-0.419,-0.417,-0.4165,-0.416,-0.4092,-0.4078,-0.4067,0,0,0,0,0,0,-0.4041,-0.408,-0.4105,-0.4074,-0.4086,-0.4118,-0.4097,-0.4128,-0.4131,-0.4138,-0.4182,-0.4187,-0.4159,-0.4172,-0.4199,-0.4145,-0.4189,-0.4183,-0.4137,-0.4124,-0.4114,-0.4111,-0.426,0,0,0,0,0,-0.4021,-0.4014,-0.4048,-0.4018,-0.4022,-0.4058,-0.4057,-0.4084,-0.4098,-0.4103,-0.4124,-0.4135,-0.4132,-0.4129,-0.4128,-0.4089,-0.4095,-0.4068,-0.4057,-0.4049,-0.4043,-0.4022,-0.401,-0.414,-0.414,-0.414,0,0,-0.398,-0.4001,-0.3993,-0.4003,-0.4016,-0.4006,-0.4062,-0.405,-0.4043,-0.4101,-0.4082,-0.4097,-0.4113,-0.4082,-0.4069,-0.4092,-0.4009,-0.4042,-0.4035,-0.4034,-0.4016,-0.4003,-0.3992,-0.4136,-0.4137,-0.4138,0,0,-0.39,-0.3915,-0.3891,-0.3902,-0.392,-0.3944,-0.3938,-0.3965,-0.3978,-0.3959,-0.4002,-0.3994,-0.3988,-0.3997,-0.4001,-0.3923,-0.3955,-0.3921,-0.3867,-0.3846,-0.3836,-0.3827,-0.3798,-0.3788,-0.3916,-0.3916,-0.3915,0,-0.3847,-0.3835,-0.3875,-0.386,-0.3862,-0.3914,-0.3889,-0.3898,-0.3914,-0.3915,-0.394,-0.3933,-0.3947,-0.3918,-0.3899,-0.3901,-0.3895,-0.3919,-0.3834,-0.3826,-0.3818,-0.3791,-0.378,-0.3911,-0.3912,-0.3912,-0.3913,0,-0.3768,-0.3759,-0.3737,-0.3751,-0.3752,-0.3732,-0.3767,-0.3763,-0.3789,-0.381,-0.3789,-0.3808,-0.3812,-0.3807,-0.3832,-0.3781,-0.3795,-0.3826,-0.3872,-0.3801,-0.3776,-0.3766,-0.3905,-0.3907,-0.3908,-0.3909,0,0,-0.3643,-0.3679,-0.3671,-0.3677,-0.37,-0.3694,-0.3675,-0.3679,-0.3673,-0.3683,-0.3668,-0.3661,-0.369,-0.3694,-0.3721,-0.3703,-0.3639,-0.3737,-0.3738,-0.3717,-0.3582,-0.3558,-0.3545,-0.3661,-0.3659,-0.3657,-0.358,0,-0.3568,-0.354,-0.3574,-0.3538,-0.353,-0.3578,-0.3562,-0.3574,-0.3593,-0.3588,-0.3609,-0.3602,-0.3642,-0.3645,-0.3629,-0.365,-0.3612,-0.3656,-0.3646,-0.3645,-0.364,-0.3533,-0.3507,-0.3434,-0.3571,-0.357,-0.3569,0,-0.3477,-0.3482,-0.3445,-0.3469,-0.3467,-0.3452,-0.3457,-0.3452,-0.3466,-0.3481,-0.3484,-0.3517,-0.35,-0.3543,-0.352,-0.3549,-0.3547,-0.3556,-0.3554,-0.3554,-0.3602,-0.3529,-0.3411,-0.34,-0.3554,-0.3555,-0.3556,0,-0.3389,-0.3386,-0.3363,-0.3367,-0.3396,-0.3384,-0.3395,-0.3411,-0.341,-0.3414,-0.3414,-0.3416,-0.3417,-0.3418,-0.3449,-0.3478,-0.3421,-0.3468,-0.3432,-0.3431,-0.3418,-0.3418,-0.3297,-0.3417,-0.3417,-0.3417,-0.3417,0,-0.3301,-0.3276,-0.3324,-0.331,-0.3283,-0.3322,-0.3294,-0.331,-0.3324,-0.3313,-0.3355,-0.3344,-0.3386,-0.3379,-0.3403,-0.3379,-0.338,-0.3391,-0.3397,-0.3387,-0.3385,-0.3386,-0.3391,-0.3414,-0.3415,-0.3416,-0.3416,0,-0.3198,-0.3229,-0.3207,-0.3235,-0.3242,-0.322,-0.3244,-0.3232,-0.3253,-0.3238,-0.3237,-0.327,-0.3264,-0.3296,-0.3295,-0.3311,-0.3275,-0.329,-0.327,-0.3274,-0.3237,-0.324,-0.3112,-0.3097,-0.3226,-0.3225,-0.3224,0,-0.314,-0.3122,-0.3148,-0.3144,-0.3153,-0.3146,-0.3145,-0.3183,-0.318,-0.3194,-0.3179,-0.3177,-0.3177,-0.3164,-0.3187,-0.3187,-0.3202,-0.3157,-0.3202,-0.3192,-0.3201,-0.3201,-0.3199,-0.3148,-0.3146,-0.3145,-0.3144,0,-0.3033,-0.3049,-0.3047,-0.305,-0.3048,-0.3052,-0.3059,-0.3053,-0.3094,-0.3088,-0.3083,-0.3082,-0.3081,-0.3077,-0.3081,-0.3092,-0.3124,-0.3129,-0.3121,-0.311,-0.3098,-0.3103,-0.3244,-0.3132,-0.3133,-0.3134,-0.3135,-0.3135,-0.2951,-0.2937,-0.2952,-0.2948,-0.2957,-0.2962,-0.2952,-0.2971,-0.2967,-0.297,-0.2992,-0.2981,-0.2994,-0.3003,-0.301,-0.3002,-0.3023,-0.3011,-0.3008,-0.3004,-0.2997,-0.31,-0.3003,-0.3003,-0.3004,-0.3004,-0.3004,0,-0.2846,-0.2858,-0.2854,-0.2862,-0.2858,-0.2889,-0.2898,-0.2892,-0.2883,-0.2893,-0.2891,-0.2884,-0.288,-0.2903,-0.2902,-0.2891,-0.2905,-0.2889,-0.289,-0.2892,-0.2979,-0.2986,-0.2877,-0.2877,-0.2877,-0.2877,-0.2877,-0.2877,-0.2791,-0.2768,-0.2785,-0.2767,-0.278,-0.277,-0.2772,-0.2776,-0.2784,-0.2774,-0.2771,-0.2786,-0.2801,-0.2801,-0.2799,-0.2805,-0.2803,-0.2781,-0.2793,-0.2874,-0.2886,-0.2898,-0.2904,-0.278,-0.278,-0.2706,-0.2706,-0.2705]}]]